[[{"header":{"parameterUnit":"m.s-1","parameterCategory":1,"la1":30.2991,"la2":30.254,"lo1":-89.0895,"lo2":-89.0444,"dy":0.0017,"dx":0.0017,"nx":28,"ny":28,"refTime":"2025-03-29T21:00:00:Z","depth":0,"parameterNumber":2,"parameterNumberName":"U-component_of_WINDS"},"data":[0,0,0,0,0,0,0,0,0,0,0,0,0,0,0,0,0,0,0,0,0,0,0,0,0,0,0,0,0,0,0,0,0,0,0,0,0,0,0,0,0,0,0,0,0,0,0,0,0,0,0,0,0,0,0,0,0,0,-5.8911,-5.8912,0,-5.901,-5.9011,-5.9013,-5.9013,-5.9012,-5.9011,-5.901,-5.9107,-5.9111,-5.9115,0,0,0,0,0,0,0,0,0,0,0,0,0,-5.8719,-5.8723,-5.8911,-5.8912,-5.8913,-5.901,-5.9012,-5.9013,-5.9014,-5.9012,-5.901,-5.9009,-5.9106,-5.911,-5.9115,0,0,0,0,0,0,0,0,0,0,0,0,0,-5.8809,-5.8724,-5.8911,-5.8926,-5.8928,-5.901,-5.9012,-5.9013,-5.9014,-5.9012,-5.901,-5.9008,-5.9104,-5.911,-5.9116,-5.9188,0,0,-5.9133,-5.9135,0,0,0,0,0,0,0,0,-5.8804,-5.8816,-5.8922,-5.8925,-5.8927,-5.8998,-5.898,-5.9072,-5.9014,-5.8981,-5.901,-5.9007,-5.9072,-5.908,-5.9103,-5.9193,-5.9197,-5.9133,-5.9137,-5.9139,-5.9141,0,0,0,0,0,0,0,-5.8798,-5.8812,-5.895,-5.8924,-5.8927,-5.8926,-5.8937,-5.8997,-5.9036,-5.8984,-5.8984,-5.8996,-5.9073,-5.9097,-5.9105,-5.9198,-5.9133,-5.9138,-5.9142,-5.9144,-5.9354,-5.9356,0,0,0,0,0,0,-5.8789,-5.8806,-5.8947,-5.8953,-5.886,-5.8931,-5.8943,-5.8977,-5.9035,-5.9042,-5.8998,-5.8996,-5.9089,-5.9098,-5.9108,-5.9197,-5.9139,-5.9144,-5.9148,-5.9352,-5.9354,-5.9357,0,0,0,0,0,0,-5.8785,-5.8801,-5.8943,-5.888,-5.8898,-5.8937,-5.8974,-5.898,-5.9004,-5.9046,-5.9052,-5.9015,-5.9088,-5.9101,-5.9169,-5.92,-5.9147,-5.9152,-5.9349,-5.9353,-5.9356,-5.9375,0,0,0,0,0,0,-5.8779,-5.88,-5.8828,-5.8881,-5.8901,-5.9002,-5.8976,-5.8983,-5.9014,-5.9013,-5.9064,-5.9071,-5.9087,-5.916,-5.9174,-5.9207,-5.9156,-5.9346,-5.9351,-5.9355,-5.9371,-5.9378,-5.9384,0,0,0,0,0,-5.8772,-5.8828,-5.8829,-5.8846,-5.8938,-5.9004,-5.9016,-5.9034,-5.9017,-5.9045,-5.9072,-5.9069,-5.9196,-5.9167,-5.9183,-5.9218,-5.9344,-5.935,-5.9354,-5.9368,-5.9377,-5.9384,0,0,0,0,0,0,-5.8776,-5.8835,-5.8837,-5.8912,-5.8953,-5.9004,-5.904,-5.9043,-5.9088,-5.9085,-5.9105,-5.9117,-5.9185,-5.9209,-5.9176,-5.9292,-5.9268,-5.9276,-5.9273,-5.9282,-5.9288,-5.9279,-5.9161,0,0,0,0,0,-5.8786,-5.8836,-5.8885,-5.8946,-5.8967,-5.9,-5.903,-5.9041,-5.9084,-5.9101,-5.9133,-5.9173,-5.9223,-5.9254,-5.9301,-5.9377,-5.9387,-5.9409,-5.9415,-5.942,-5.9426,-5.9468,-5.9477,-5.9373,-5.9373,-5.9373,0,0,-5.8805,-5.8845,-5.8874,-5.8948,-5.8981,-5.9031,-5.9014,-5.9068,-5.9105,-5.9108,-5.9175,-5.92,-5.9247,-5.9319,-5.9353,-5.9341,-5.9458,-5.9426,-5.943,-5.9433,-5.9474,-5.9483,-5.9492,-5.9376,-5.9376,-5.9375,0,0,-5.8867,-5.8902,-5.8957,-5.8992,-5.9043,-5.9066,-5.9079,-5.9131,-5.9148,-5.9216,-5.922,-5.9265,-5.9349,-5.9382,-5.941,-5.9489,-5.9487,-5.9504,-5.9536,-5.9576,-5.9584,-5.9592,-5.9618,-5.9628,-5.9511,-5.9511,-5.9511,0,-5.8884,-5.8961,-5.8985,-5.9039,-5.9071,-5.908,-5.9135,-5.9167,-5.9231,-5.9253,-5.924,-5.9347,-5.938,-5.946,-5.9479,-5.9502,-5.9517,-5.9496,-5.9582,-5.9589,-5.9596,-5.9622,-5.9632,-5.9512,-5.9512,-5.9512,-5.9512,0,-5.898,-5.9034,-5.9072,-5.9135,-5.9172,-5.9227,-5.9258,-5.9293,-5.9303,-5.9326,-5.9396,-5.9436,-5.9491,-5.9512,-5.9521,-5.9594,-5.9586,-5.9578,-5.9553,-5.9608,-5.9632,-5.9642,-5.9514,-5.9514,-5.9513,-5.9513,0,0,-5.9041,-5.9121,-5.9134,-5.9163,-5.9223,-5.9264,-5.932,-5.9377,-5.9406,-5.9451,-5.9497,-5.957,-5.9564,-5.9596,-5.9609,-5.9645,-5.9704,-5.9633,-5.9634,-5.9643,-5.9786,-5.979,-5.9801,-5.9706,-5.9708,-5.9709,-5.9782,0,-5.9108,-5.9208,-5.9232,-5.9317,-5.9367,-5.9378,-5.9426,-5.9468,-5.9493,-5.9538,-5.9565,-5.9616,-5.9605,-5.9624,-5.9661,-5.9689,-5.9733,-5.9685,-5.9747,-5.9749,-5.9732,-5.9814,-5.9818,-5.9884,-5.9792,-5.9793,-5.9795,0,-5.9197,-5.9246,-5.9336,-5.9391,-5.9413,-5.9456,-5.9511,-5.9555,-5.9603,-5.9619,-5.9657,-5.9667,-5.9726,-5.9702,-5.9782,-5.9749,-5.9776,-5.9795,-5.9798,-5.9801,-5.9772,-5.9817,-5.9906,-5.9915,-5.981,-5.9809,-5.9808,0,-5.923,-5.932,-5.9385,-5.9411,-5.9477,-5.9507,-5.9536,-5.9582,-5.9615,-5.9664,-5.9685,-5.9739,-5.9768,-5.981,-5.9835,-5.9815,-5.9913,-5.9891,-5.9926,-5.9925,-5.9943,-5.9941,-6.0034,-5.9966,-5.9966,-5.9965,-5.9965,0,-5.93,-5.9354,-5.9402,-5.9441,-5.9503,-5.9532,-5.9592,-5.9621,-5.9663,-5.9708,-5.9722,-5.9764,-5.9796,-5.9843,-5.9864,-5.9927,-5.994,-5.9954,-5.9958,-5.9951,-5.9949,-5.9966,-5.9961,-5.9968,-5.9967,-5.9967,-5.9966,0,-5.9345,-5.938,-5.9452,-5.951,-5.9526,-5.9569,-5.9618,-5.9658,-5.9685,-5.9743,-5.9758,-5.98,-5.9856,-5.9887,-5.9956,-5.997,-6.004,-6.0043,-6.0024,-6.0025,-6.0058,-6.0054,-6.0163,-6.0179,-6.0103,-6.0103,-6.0104,0,-5.9386,-5.9428,-5.9492,-5.9525,-5.9554,-5.9606,-5.9641,-5.9672,-5.9708,-5.9767,-5.9799,-5.9857,-5.9904,-5.9994,-6.003,-6.0084,-6.0086,-6.0122,-6.0094,-6.0086,-6.0084,-6.008,-6.0084,-6.0125,-6.0125,-6.0126,-6.0126,0,-5.9453,-5.9469,-5.9519,-5.9577,-5.9618,-5.9664,-5.971,-5.9736,-5.9774,-5.9813,-5.9872,-5.9909,-5.9982,-6.0039,-6.0097,-6.0125,-6.0132,-6.0136,-6.0146,-6.0138,-6.0124,-6.013,-6.0034,-6.0132,-6.0131,-6.0131,-6.0131,-6.013,-5.9496,-5.9535,-5.9586,-5.9642,-5.9681,-5.9724,-5.9764,-5.9798,-5.9848,-5.991,-5.9926,-5.9987,-6.0036,-6.0115,-6.0146,-6.0194,-6.0187,-6.0203,-6.0206,-6.0209,-6.021,-6.0119,-6.0205,-6.0205,-6.0205,-6.0205,-6.0205,0,-5.9562,-5.9597,-5.9649,-5.9713,-5.9758,-5.9764,-5.9816,-5.9852,-5.9906,-5.9952,-6.0,-6.0068,-6.0124,-6.0166,-6.0223,-6.0254,-6.0258,-6.0268,-6.0264,-6.027,-6.0213,-6.0197,-6.0263,-6.0263,-6.0263,-6.0263,-6.0263,-6.0263,-5.9602,-5.9667,-5.969,-5.9775,-5.981,-5.9871,-5.99,-5.994,-5.9977,-6.0053,-6.01,-6.0128,-6.0173,-6.0234,-6.0286,-6.0297,-6.0316,-6.0325,-6.0336,-6.0281,-6.0274,-6.0268,-6.0253,-6.0329,-6.033,-6.0389,-6.0389,-6.039]},{"header":{"parameterUnit":"m.s-1","parameterCategory":1,"la1":30.2991,"la2":30.254,"lo1":-89.0895,"lo2":-89.0444,"dy":0.0017,"dx":0.0017,"nx":28,"ny":28,"refTime":"2025-03-29T21:00:00:Z","depth":0,"parameterNumber":3,"parameterNumberName":"V-component_of_WINDS"},"data":[0,0,0,0,0,0,0,0,0,0,0,0,0,0,0,0,0,0,0,0,0,0,0,0,0,0,0,0,0,0,0,0,0,0,0,0,0,0,0,0,0,0,0,0,0,0,0,0,0,0,0,0,0,0,0,0,0,0,4.3898,4.3898,0,4.3979,4.398,4.398,4.3993,4.3992,4.3992,4.3991,4.4068,4.407,4.4073,0,0,0,0,0,0,0,0,0,0,0,0,0,4.3751,4.3754,4.3897,4.3899,4.39,4.3979,4.398,4.3981,4.3993,4.3992,4.3991,4.3991,4.4067,4.407,4.4073,0,0,0,0,0,0,0,0,0,0,0,0,0,4.3821,4.3754,4.3897,4.3915,4.3918,4.3978,4.398,4.3981,4.3993,4.3992,4.3991,4.399,4.4066,4.407,4.4074,4.412,0,0,4.4086,4.4088,0,0,0,0,0,0,0,0,4.3817,4.3827,4.3912,4.3914,4.3917,4.3975,4.3956,4.4027,4.3994,4.3964,4.3991,4.399,4.4037,4.4044,4.4061,4.4123,4.4127,4.4086,4.4089,4.4091,4.4092,0,0,0,0,0,0,0,4.3812,4.3823,4.3929,4.3913,4.3916,4.3919,4.3928,4.397,4.4005,4.3967,4.3968,4.3978,4.4038,4.4057,4.4063,4.4128,4.4086,4.409,4.4092,4.4094,4.4237,4.4238,0,0,0,0,0,0,4.3805,4.3819,4.3927,4.3932,4.3864,4.3922,4.3932,4.3957,4.4005,4.4012,4.3979,4.3978,4.4051,4.4058,4.4066,4.4126,4.4091,4.4094,4.4097,4.4236,4.4237,4.4239,0,0,0,0,0,0,4.3802,4.3814,4.3924,4.3876,4.389,4.3926,4.3954,4.3959,4.3978,4.4014,4.402,4.3991,4.405,4.406,4.4108,4.4128,4.4096,4.41,4.4234,4.4236,4.4238,4.4244,0,0,0,0,0,0,4.3797,4.3813,4.3831,4.3876,4.3893,4.3965,4.3955,4.3962,4.3986,4.3986,4.4027,4.4033,4.405,4.4102,4.4112,4.4133,4.4103,4.4232,4.4235,4.4237,4.4242,4.4246,4.425,0,0,0,0,0,4.3792,4.3827,4.3832,4.3845,4.3916,4.3966,4.3975,4.3996,4.3987,4.4006,4.403,4.4032,4.4125,4.4106,4.4118,4.4141,4.4231,4.4234,4.4237,4.4241,4.4246,4.425,0,0,0,0,0,0,4.378,4.3833,4.3839,4.389,4.3924,4.3968,4.3992,4.3999,4.4034,4.4033,4.4055,4.4064,4.4111,4.4131,4.411,4.4191,4.4177,4.4183,4.4176,4.4181,4.4184,4.4179,4.4107,0,0,0,0,0,4.3784,4.3822,4.3865,4.3906,4.3923,4.3955,4.3977,4.3991,4.4026,4.4039,4.4066,4.4099,4.4136,4.4159,4.4195,4.4246,4.4256,4.4268,4.4271,4.4274,4.4279,4.431,4.4317,4.4249,4.4249,4.4249,0,0,4.3791,4.3825,4.3846,4.3905,4.3933,4.3971,4.3967,4.4006,4.4035,4.4044,4.4093,4.4114,4.4152,4.4203,4.4226,4.4221,4.43,4.4278,4.428,4.4283,4.4314,4.4321,4.4326,4.4251,4.4251,4.425,0,0,4.3824,4.3853,4.3892,4.3921,4.3965,4.3987,4.3996,4.4041,4.4057,4.4106,4.4116,4.415,4.4212,4.424,4.4262,4.4312,4.4316,4.4323,4.4341,4.4372,4.4377,4.4382,4.4402,4.4409,4.4327,4.4327,4.4327,0,4.3826,4.3886,4.391,4.3952,4.3978,4.3993,4.4033,4.406,4.4111,4.4129,4.4123,4.4205,4.4231,4.429,4.4303,4.432,4.4332,4.4317,4.4375,4.438,4.4385,4.4404,4.4411,4.4328,4.4328,4.4327,4.4327,0,4.3888,4.393,4.3956,4.401,4.404,4.4079,4.411,4.4137,4.4149,4.4172,4.4224,4.4257,4.4301,4.4316,4.4326,4.4378,4.4374,4.4371,4.4358,4.4392,4.441,4.4418,4.4329,4.4328,4.4328,4.4328,0,0,4.3912,4.3984,4.3993,4.402,4.4072,4.4104,4.4146,4.4193,4.4216,4.4252,4.4289,4.4344,4.4344,4.4369,4.4383,4.441,4.4451,4.4404,4.4406,4.4413,4.4513,4.4515,4.4523,4.4455,4.4456,4.4457,4.451,0,4.3952,4.403,4.4056,4.412,4.416,4.4177,4.4214,4.425,4.4273,4.431,4.4335,4.4375,4.437,4.4386,4.4414,4.444,4.4471,4.4436,4.4489,4.449,4.4479,4.4533,4.4534,4.4583,4.4518,4.4519,4.452,0,4.4008,4.4051,4.412,4.4172,4.4189,4.4222,4.427,4.4304,4.4346,4.4362,4.4393,4.4406,4.4452,4.4437,4.45,4.4476,4.4499,4.4516,4.4519,4.4524,4.4507,4.4541,4.4599,4.4606,4.4531,4.453,4.4529,0,4.4022,4.4095,4.4148,4.417,4.423,4.4254,4.428,4.4321,4.4349,4.439,4.4409,4.4453,4.4477,4.4512,4.4537,4.4524,4.4599,4.4586,4.4613,4.4613,4.4628,4.4626,4.4691,4.4641,4.4641,4.4641,4.4641,0,4.4064,4.4106,4.4155,4.4187,4.4236,4.4266,4.4313,4.4339,4.4377,4.4415,4.4431,4.4466,4.4497,4.4536,4.4556,4.4607,4.4617,4.4631,4.4636,4.463,4.4629,4.4645,4.4643,4.4643,4.4643,4.4642,4.4642,0,4.4086,4.412,4.4179,4.4234,4.4249,4.4283,4.4329,4.4361,4.4387,4.4435,4.4448,4.4488,4.4535,4.4565,4.4623,4.4637,4.4694,4.4696,4.468,4.4683,4.4709,4.4707,4.4788,4.4801,4.4741,4.4742,4.4742,0,4.4111,4.4145,4.4205,4.4233,4.4261,4.4305,4.4336,4.4367,4.4398,4.4451,4.4477,4.4527,4.4568,4.4643,4.4676,4.4722,4.4727,4.4752,4.4734,4.4728,4.473,4.4728,4.4732,4.4755,4.4755,4.4756,4.4756,0,4.4152,4.4169,4.4214,4.4266,4.4303,4.4344,4.4385,4.4406,4.4445,4.4479,4.453,4.4562,4.4625,4.4674,4.4725,4.475,4.476,4.4762,4.4772,4.4766,4.4756,4.4764,4.469,4.476,4.476,4.4759,4.4759,4.4759,4.4178,4.421,4.426,4.431,4.4345,4.4385,4.4419,4.4452,4.4495,4.4551,4.4567,4.4621,4.4665,4.4734,4.4762,4.4804,4.48,4.4813,4.4816,4.4819,4.4821,4.475,4.4813,4.4813,4.4813,4.4813,4.4813,0,4.4222,4.4256,4.4302,4.4362,4.4402,4.4411,4.4459,4.4491,4.4539,4.4581,4.4623,4.4683,4.4732,4.4772,4.4823,4.4849,4.4855,4.4861,4.486,4.4866,4.482,4.4808,4.4856,4.4856,4.4856,4.4856,4.4856,4.4856,4.4249,4.4307,4.433,4.4406,4.4439,4.4494,4.4521,4.4558,4.4593,4.466,4.4703,4.4729,4.4771,4.4826,4.4872,4.4882,4.49,4.4906,4.4917,4.4874,4.4869,4.4864,4.4853,4.491,4.491,4.496,4.4961,4.4961]}]]